{"data":{"norad_id":63642,"intl_designator":"2025-083J","name":"STARLINK-33836","alt_names":[],"object_type":"PAYLOAD","status":"ACTIVE","operator":null,"country":"US","launch_date":"2025-04-25","launch_site_code":"AFETR","launch_vehicle":null,"mission":null,"orbit_class":"UNKNOWN","rcs_meters":null,"size_class":null,"mass_kg":null,"dimensions":null,"purposes":["comms"],"wikipedia_slug":null,"has_3d_model":false,"image_url":null,"decayed_at":null,"tle_current":{"epoch":"2026-09-20T22:22:35.497056Z","epoch_age_seconds":115176,"freshness":"FRESH","line1":"1 63642U 25083J   26263.93235529  .00014328  00000+0  52897-3 0  9997","line2":"2 63642  43.0083 342.8475 0003561 260.5390  99.5059 15.27589674 79922","mean_motion":15.27589674,"eccentricity":0.0003561,"inclination_deg":43.0083,"raan_deg":342.8475,"arg_perigee_deg":260.539,"mean_anomaly_deg":99.5059,"bstar":0.00052897,"rev_number":7992,"period_min":94.266151736242,"perigee_km":480.57687070277,"apogee_km":485.46338680987,"semimajor_km":6861.1571287563,"source":"CELESTRAK","updated_at":"2026-09-21T09:00:35.052149Z"}}}